Location: Brissac
(47.3500°N, 0.4500°W)
Time: 08:17:38
(UTC+02:00)

ISS - Pass Details

Date: 17 May 2021
Orbit: 419 x 422 km, 51.6° (Epoch: 24 June)

Event Time Altitude Azimuth Distance (km) Brightness Sun altitude
Rises 02:06:20 0° 288° (WNW) 2,428 0.3 -23.3°
Reaches altitude 10° 02:08:32 10° 295° (WNW) 1,563 -0.6 -23.3°
Maximum altitude 02:11:55 43° 9° (N) 634 -2.5 -23.2°
Drops below altitude 10° 02:15:19 10° 83° (E) 1,572 -0.7 -23.2°
Sets 02:17:31 0° 90° (E) 2,444 0.2 -23.2°
